星链-3687 (STARLINK-3687 )

导读

STARLINK-3687是美国太空探索技术公司(SpaceX)星链(Starlink)卫星互联网项目中的一颗低轨卫星,于2022年3月19日发射升空。星链项目计划在近地轨道搭建数万颗卫星组成的星座,为全球偏远、网络欠发达地区提供低延迟高速宽带服务,该卫星是星链星座组网建设的组成部分,助力项目完成全球覆盖的部署目标,目前星链已在全球六十余个国家开通服务。

基本信息
目录编号:
52110
目录名称:
STARLINK-3687
国际标识:
2022-029Y
轨道中心:
EARTH
卫星名称:
星链-3687
卫星全名:
星链-3687 (STARLINK-3687 )
卫星状态:
在轨 (已飞行1551 天)
发射日期:
2022-03-19 UTC
国别 :
美国 (US)
星等 :
--
轨道信息
数据来源 国际轨道数据
星历时间: 2026-06-17T02:59:40+0800
22小时前
查看轨道信息
半长轴: 6917.896km
偏心率: 0.0001354
轨道倾角: 53.160°
近地点辐角 84.007°
升交点赤经 354.141°
平近点角 276.108°
近地点: 538.822km
远地点: 540.696km
周期: 95.438分钟
每日圈数: 15.08835
详细信息
固有亮度:
5
最大亮度:
2.5
卫星平台:
Starlink v1.5
覆盖范围:
全球
运营商:
太空探索技术公司
运营商所在国:
美国
制造商(研发单位):
太空探索技术公司
制造商所在国:
美国
使用方式:
暂无
卫星简介
星链(Starlink)计划是由太空探索技术公司(SpaceX)提出的一个巨型低轨卫星互联网星座项目,计划在2019年至2024年间在太空搭建由约1.2万颗卫星组成的“星链”网络,其中1584颗将部署在地球上空550千米处的近地轨道,并从2020年开始工作。该卫星仍在工作。
2D轨道图
3D轨道图
轨道高度分析图
轨道倾角分析图
轨道综合分析图
查看轨道综合分析图